EA6DT Weather Reports


time (UTC)temp
C
wind
direction
speed
KPH
gust
KPH
rain 1hr
cm
rain 24hr
cm
rain mn
cm
humidity
%
barometer
mb
20260508174331 18 113 0.0 0.0 0.00 0.00 0.23 82 1013.9
20260508173842 18 198 0.0 0.0 0.00 0.00 0.23 82 1013.8
20260508173332 18 153 1.6 0.0 0.00 0.00 0.23 81 1013.7
20260508172842 18 136 3.2 0.0 0.00 0.00 0.23 81 1013.6
20260508172347 18 75 3.2 0.0 0.00 0.00 0.23 81 1013.6
20260508171332 18 155 1.6 0.0 0.00 0.00 0.23 81 1013.4
20260508170902 19 94 1.6 0.0 0.00 0.00 0.23 81 1013.5
20260508170348 19 105 3.2 0.0 0.00 0.00 0.23 80 1013.5
20260508165831 19 106 3.2 0.0 0.00 0.00 0.23 79 1013.5
20260508165342 19 188 3.2 0.0 0.00 0.00 0.23 80 1013.5
20260508164832 19 203 3.2 0.0 0.00 0.00 0.23 81 1013.5
20260508164342 19 149 3.2 0.0 0.00 0.00 0.23 81 1013.4
20260508163850 19 175 3.2 0.0 0.00 0.00 0.23 81 1013.3
20260508163341 18 224 4.8 0.0 0.00 0.00 0.23 82 1013.2
20260508162831 18 165 4.8 0.0 0.00 0.00 0.23 81 1013.1
20260508162401 18 188 4.8 0.0 0.00 0.00 0.23 81 1013.1
20260508161831 19 139 3.2 0.0 0.00 0.00 0.23 80 1013.2
20260508161339 19 184 3.2 0.0 0.00 0.00 0.23 82 1013.3
20260508160830 18 195 4.8 0.0 0.00 0.00 0.23 83 1013.1
20260508160341 18 150 4.8 0.0 0.00 0.00 0.23 83 1013.1
20260508155846 18 162 4.8 0.0 0.00 0.00 0.23 84 1013.1
20260508155332 18 178 3.2 0.0 0.00 0.00 0.23 84 1013.3
20260508154842 18 150 3.2 0.0 0.00 0.00 0.23 86 1013.5
20260508154334 18 121 4.8 0.0 0.00 0.00 0.23 87 1013.5
20260508153825 17 167 3.2 0.0 0.00 0.00 0.23 87 1013.4
20260508153336 17 182 1.6 0.0 0.00 0.00 0.23 89 1013.5
20260508152827 17 153 1.6 0.0 0.00 0.00 0.23 89 1013.6
20260508152333 17 203 0.0 0.0 0.00 0.00 0.23 89 1013.9
20260508151844 17 174 0.0 0.0 0.00 0.00 0.23 89 1014.1
20260508151336 17 142 1.6 0.0 0.00 0.00 0.23 89 1014.1
20260508150826 17 109 3.2 0.0 0.00 0.00 0.23 88 1014.0
20260508150352 17 64 3.2 0.0 0.00 0.00 0.23 89 1013.8
20260508145856 17 41 3.2 0.0 0.00 0.00 0.23 89 1013.7
20260508145340 17 61 3.2 0.0 0.00 0.00 0.23 89 1014.1
20260508144830 17 52 1.6 0.0 0.00 0.00 0.23 89 1014.2
20260508144336 17 25 3.2 0.0 0.00 0.00 0.23 89 1014.4
20260508143827 17 44 4.8 0.0 0.00 0.00 0.23 88 1014.5
20260508143338 17 36 4.8 0.0 0.00 0.00 0.23 88 1014.4
20260508142828 17 41 1.6 0.0 0.00 0.00 0.23 89 1014.3
20260508142359 17 43 1.6 0.0 0.00 0.00 0.23 89 1014.6
20260508141844 17 24 1.6 0.0 0.00 0.00 0.23 89 1014.6
20260508141336 17 81 1.6 0.0 0.00 0.00 0.23 89 1014.6
20260508140827 17 1 1.6 0.0 0.00 0.00 0.23 89 1014.7
20260508140357 17 1 1.6 0.0 0.00 0.00 0.23 89 1014.6
20260508135836 17 64 1.6 0.0 0.00 0.00 0.23 89 1014.6
20260508135355 17 54 3.2 0.0 0.00 0.00 0.23 88 1014.5
20260508134844 17 89 3.2 0.0 0.00 0.00 0.23 89 1014.3
20260508134335 17 57 4.8 0.0 0.00 0.00 0.23 89 1014.2
20260508133905 17 10 4.8 0.0 0.00 0.00 0.23 89 1014.2
20260508133331 17 70 3.2 0.0 0.00 0.00 0.23 89 1014.4
20260508132842 17 52 3.2 0.0 0.00 0.00 0.23 89 1014.4
20260508132353 17 78 4.8 0.0 0.00 0.00 0.23 89 1014.3
20260508131337 17 56 8.0 0.0 0.00 0.00 0.23 89 1014.2
20260508130844 17 33 8.0 0.0 0.00 0.00 0.23 89 1014.3
20260508130334 17 100 6.4 0.0 0.00 0.00 0.23 89 1014.3
20260508125917 17 48 8.0 0.0 0.00 0.00 0.23 89 1014.2
20260508125342 17 61 6.4 0.0 0.00 0.00 0.23 88 1014.3
20260508124829 17 63 6.4 0.0 0.00 0.00 0.23 88 1014.1
20260508124339 17 32 6.4 0.0 0.00 0.00 0.23 87 1014.1
20260508123829 17 47 6.4 0.0 0.00 0.00 0.23 86 1014.1
20260508123358 18 85 6.4 0.0 0.00 0.00 0.23 85 1014.1
20260508122827 18 92 8.0 0.0 0.00 0.00 0.23 84 1014.1
20260508122333 18 41 6.4 0.0 0.00 0.00 0.23 83 1014.1
20260508121904 18 58 6.4 0.0 0.00 0.00 0.23 84 1014.0
20260508121333 18 79 6.4 0.0 0.00 0.00 0.23 85 1014.0
20260508120845 18 89 6.4 0.0 0.00 0.00 0.23 85 1014.0
20260508120350 18 97 6.4 0.0 0.00 0.00 0.23 87 1014.0
20260508115833 18 97 6.4 0.0 0.00 0.00 0.23 87 1014.1
20260508115336 17 110 6.4 0.0 0.00 0.00 0.23 88 1014.2
20260508114904 17 81 4.8 0.0 0.00 0.00 0.23 88 1014.2
20260508114349 17 72 8.0 0.0 0.00 0.00 0.23 88 1014.1
20260508113838 17 108 8.0 0.0 0.00 0.00 0.23 88 1014.2
20260508113328 17 92 6.4 0.0 0.00 0.00 0.23 87 1014.1
20260508112854 17 103 6.4 0.0 0.00 0.00 0.23 86 1014.3
20260508112344 17 56 6.4 0.0 0.00 0.00 0.23 85 1014.4
20260508111834 17 103 4.8 0.0 0.00 0.00 0.23 85 1014.3
20260508111344 17 74 4.8 0.0 0.00 0.00 0.23 85 1014.4
20260508110835 17 78 4.8 0.0 0.00 0.00 0.23 85 1014.4
20260508110402 17 47 4.8 0.0 0.00 0.00 0.23 85 1014.4
20260508105845 17 74 6.4 0.0 0.00 0.00 0.23 85 1014.5
20260508105356 17 96 8.0 0.0 0.00 0.00 0.23 85 1014.4
20260508104827 17 50 8.0 0.0 0.00 0.00 0.23 84 1014.4
20260508104336 18 67 6.4 0.0 0.00 0.00 0.23 83 1014.3
20260508103842 18 46 6.4 0.0 0.00 0.00 0.23 83 1014.2
20260508103333 18 124 6.4 0.0 0.00 0.00 0.23 83 1014.3
20260508102842 18 60 6.4 0.0 0.00 0.00 0.23 83 1014.3
20260508102328 18 80 4.8 0.0 0.00 0.00 0.23 83 1014.3
20260508101838 18 83 6.4 0.0 0.00 0.00 0.23 83 1014.3
20260508101345 18 62 6.4 0.0 0.00 0.00 0.23 83 1014.3
20260508100835 18 82 8.0 0.0 0.00 0.00 0.23 84 1014.3
20260508100345 18 62 8.0 0.0 0.00 0.00 0.23 84 1014.4
20260508095845 18 58 8.0 0.0 0.00 0.00 0.23 83 1014.4
20260508095353 18 87 8.0 0.0 0.00 0.00 0.23 84 1014.4
20260508094843 17 103 6.4 0.0 0.00 0.00 0.23 85 1014.5
20260508094353 17 86 6.4 0.0 0.00 0.00 0.23 86 1014.7
20260508093842 17 59 6.4 0.0 0.00 0.00 0.23 87 1014.7
20260508093334 17 72 4.8 0.0 0.00 0.00 0.23 88 1014.6
20260508092841 17 54 4.8 0.0 0.00 0.00 0.23 88 1014.5
20260508092332 16 54 4.8 0.0 0.00 0.00 0.23 88 1014.5
20260508091830 16 73 4.8 0.0 0.00 0.00 0.23 89 1014.7
20260508091342 16 74 4.8 0.0 0.00 0.00 0.23 89 1014.7
20260508090832 16 75 4.8 0.0 0.00 0.00 0.23 89 1014.6
20260508090338 16 1 3.2 0.0 0.00 0.00 0.23 90 1014.6
20260508085844 16 63 4.8 0.0 0.00 0.00 0.23 90 1014.4
20260508085354 16 76 4.8 0.0 0.00 0.00 0.23 90 1014.4
20260508084843 16 84 4.8 0.0 0.00 0.00 0.23 90 1014.4
20260508084335 16 65 4.8 0.0 0.00 0.00 0.23 90 1014.4
20260508083842 16 101 4.8 0.0 0.00 0.00 0.23 91 1014.4
20260508083332 16 82 6.4 0.0 0.00 0.00 0.23 91 1014.4
20260508082842 16 105 6.4 0.0 0.00 0.00 0.23 92 1014.3
20260508082333 16 90 6.4 0.0 0.00 0.00 0.23 92 1014.3
20260508081844 16 1 4.8 0.0 0.00 0.00 0.23 93 1014.3
20260508081330 16 335 3.2 0.0 0.00 0.00 0.23 94 1014.3
20260508080840 15 60 4.8 0.0 0.00 0.00 0.23 94 1014.4
20260508080333 15 67 4.8 0.0 0.00 0.00 0.23 95 1014.3
20260508075836 15 68 4.8 0.0 0.00 0.00 0.23 95 1014.3
20260508075347 15 80 3.2 0.0 0.00 0.00 0.23 95 1014.2
20260508074832 15 83 3.2 0.0 0.00 0.00 0.23 95 1014.0
20260508074343 15 74 3.2 0.0 0.00 0.00 0.23 95 1014.0
20260508073833 15 41 3.2 0.0 0.00 0.00 0.23 95 1014.0
20260508073404 15 34 1.6 0.0 0.00 0.00 0.23 95 1014.1
20260508072826 14 77 3.2 0.0 0.00 0.00 0.23 95 1014.1
20260508072337 14 92 3.2 0.0 0.00 0.00 0.23 95 1014.0
20260508071827 14 65 3.2 0.0 0.00 0.00 0.23 95 1014.0
20260508071338 14 110 3.2 0.0 0.00 0.00 0.23 95 1014.1
20260508070828 14 98 3.2 0.0 0.00 0.00 0.23 95 1014.1
20260508070336 14 83 3.2 0.0 0.00 0.00 0.23 95 1014.0
20260508065840 14 91 3.2 0.0 0.00 0.00 0.23 95 1014.0
20260508065329 14 101 3.2 0.0 0.00 0.00 0.23 95 1013.9
20260508064859 14 89 4.8 0.0 0.00 0.00 0.23 95 1013.9
20260508064401 14 84 4.8 0.0 0.00 0.00 0.23 95 1013.9
20260508063906 14 103 4.8 0.0 0.00 0.00 0.23 95 1013.9
20260508063332 14 94 4.8 0.0 0.00 0.00 0.23 95 1013.8
20260508062843 14 105 4.8 0.0 0.00 0.00 0.23 95 1013.8
20260508062334 14 67 4.8 0.0 0.00 0.00 0.23 95 1013.8
20260508061840 14 101 3.2 0.0 0.00 0.00 0.23 95 1013.6
20260508061351 14 114 1.6 0.0 0.00 0.00 0.23 96 1013.6
20260508060840 14 98 3.2 0.0 0.00 0.00 0.23 96 1013.5
20260508060331 14 72 3.2 0.0 0.00 0.00 0.23 95 1013.5
20260508055830 14 71 3.2 0.0 0.00 0.00 0.23 95 1013.5
20260508055340 14 69 3.2 0.0 0.00 0.00 0.23 95 1013.4
20260508054830 14 96 3.2 0.0 0.00 0.00 0.23 96 1013.4
20260508054342 13 102 1.6 0.0 0.00 0.00 0.23 95 1013.4
20260508053832 13 125 1.6 0.0 0.00 0.00 0.23 96 1013.3
20260508053358 13 63 1.6 0.0 0.00 0.00 0.23 96 1013.2
20260508052828 13 87 3.2 0.0 0.00 0.00 0.23 96 1013.1
20260508052338 13 91 3.2 0.0 0.00 0.00 0.23 96 1013.0
20260508051829 13 73 3.2 0.0 0.00 0.00 0.23 96 1012.9
20260508051327 13 94 3.2 0.0 0.00 0.00 0.23 96 1012.8
20260508050833 13 94 1.6 0.0 0.00 0.00 0.23 96 1012.5
20260508050344 13 44 1.6 0.0 0.00 0.00 0.23 95 1012.5
20260508045848 13 85 3.2 0.0 0.00 0.00 0.23 95 1012.4
20260508045335 13 88 1.6 0.0 0.00 0.00 0.23 95 1012.2
20260508044845 13 107 1.6 0.0 0.00 0.00 0.23 95 1012.2
20260508044351 13 156 1.6 0.0 0.00 0.00 0.23 95 1012.2
20260508043841 13 101 1.6 0.0 0.00 0.00 0.23 95 1012.1
20260508043332 13 82 1.6 0.0 0.00 0.00 0.23 95 1012.0
20260508042842 13 101 1.6 0.0 0.00 0.00 0.23 95 1012.0
20260508042333 13 113 1.6 0.0 0.00 0.00 0.23 96 1012.1
20260508041859 13 96 1.6 0.0 0.00 0.00 0.23 95 1012.0
20260508041347 13 110 1.6 0.0 0.00 0.00 0.23 95 1012.0
20260508040836 13 115 1.6 0.0 0.00 0.00 0.23 95 1012.0
20260508040326 14 104 1.6 0.0 0.00 0.00 0.23 95 1011.9
20260508035825 14 58 1.6 0.0 0.00 0.00 0.23 95 1011.9
20260508035356 14 46 1.6 0.0 0.00 0.00 0.23 95 1012.0
20260508034825 14 72 1.6 0.0 0.00 0.00 0.23 95 1012.0
20260508034343 14 77 1.6 0.0 0.00 0.00 0.23 96 1012.1
20260508033830 14 101 1.6 0.0 0.00 0.00 0.23 96 1012.2
20260508033337 14 89 3.2 0.0 0.00 0.00 0.23 95 1012.2
20260508032827 14 98 3.2 0.0 0.00 0.00 0.23 95 1012.3
20260508032337 14 63 1.6 0.0 0.00 0.00 0.23 95 1012.3
20260508031827 14 95 0.0 0.0 0.00 0.00 0.23 95 1012.3
20260508031355 14 92 1.6 0.0 0.00 0.00 0.23 95 1012.4
20260508030843 14 77 1.6 0.0 0.00 0.00 0.23 95 1012.3
20260508030333 14 94 1.6 0.0 0.00 0.00 0.23 95 1012.3
20260508025856 14 60 1.6 0.0 0.00 0.00 0.23 95 1012.4
20260508025404 14 39 1.6 0.0 0.00 0.00 0.23 95 1012.4
20260508024832 14 45 1.6 0.0 0.00 0.00 0.23 95 1012.3
20260508024342 14 41 1.6 0.0 0.00 0.00 0.23 95 1012.3
20260508023833 14 79 1.6 0.0 0.00 0.00 0.23 95 1012.3
20260508023344 14 70 1.6 0.0 0.00 0.00 0.23 96 1012.3
20260508022835 13 45 1.6 0.0 0.00 0.00 0.23 96 1012.3
20260508022341 13 63 1.6 0.0 0.00 0.00 0.23 96 1012.3
20260508021831 13 108 1.6 0.0 0.00 0.00 0.23 95 1012.3
20260508021343 13 92 3.2 0.0 0.00 0.00 0.23 95 1012.3
20260508020833 13 105 3.2 0.0 0.00 0.00 0.23 95 1012.2
20260508020344 13 45 3.2 0.0 0.00 0.00 0.23 95 1012.1
20260508015844 13 70 3.2 0.0 0.00 0.00 0.23 95 1012.1
20260508015336 13 81 1.6 0.0 0.00 0.00 0.23 95 1012.2
20260508014906 13 78 1.6 0.0 0.00 0.00 0.23 95 1012.2
20260508014335 13 76 1.6 0.0 0.00 0.00 0.23 95 1012.3
20260508013841 13 82 3.2 0.0 0.00 0.00 0.23 95 1012.3
20260508013332 13 88 3.2 0.0 0.00 0.00 0.23 95 1012.4
20260508012843 14 96 3.2 0.0 0.00 0.00 0.23 95 1012.3
20260508012335 14 103 4.8 0.0 0.00 0.00 0.23 95 1012.4
20260508011845 14 55 4.8 0.0 0.00 0.00 0.23 95 1012.4
20260508010834 14 91 4.8 0.0 0.00 0.00 0.23 95 1012.5
20260508010344 14 84 4.8 0.0 0.00 0.00 0.23 95 1012.6
20260508005827 14 65 4.8 0.0 0.00 0.00 0.23 95 1012.7
20260508004834 14 86 4.8 0.0 0.00 0.00 0.23 95 1012.8
20260508004340 14 99 3.2 0.0 0.00 0.00 0.23 95 1012.9
20260508003830 14 83 3.2 0.0 0.00 0.00 0.23 95 1012.9
20260508003341 14 70 3.2 0.0 0.00 0.00 0.23 95 1012.9
20260508002831 14 56 3.2 0.0 0.00 0.00 0.23 95 1012.9
20260508002341 13 53 3.2 0.0 0.00 0.00 0.23 95 1012.9
20260508001827 13 45 3.2 0.0 0.00 0.00 0.23 95 1013.0
20260508001338 13 22 3.2 0.0 0.00 0.00 0.23 95 1013.0
20260508000828 13 56 3.2 0.0 0.00 0.00 0.23 95 1013.0
20260508000338 13 34 3.2 0.0 0.00 0.00 0.23 95 1013.1
20260507235841 13 44 3.2 0.0 0.00 0.00 0.23 95 1013.1
20260507235336 13 54 3.2 0.0 0.00 0.00 0.20 95 1013.2
20260507234846 13 27 3.2 0.0 0.00 0.00 0.20 95 1013.2
20260507234337 13 82 3.2 0.0 0.00 0.00 0.20 95 1013.2
20260507233826 13 73 3.2 0.0 0.00 0.00 0.20 95 1013.3
20260507233338 13 46 1.6 0.0 0.00 0.00 0.20 95 1013.5
20260507232905 13 105 3.2 0.0 0.00 0.00 0.20 95 1013.6
20260507232334 13 48 3.2 0.0 0.00 0.00 0.20 95 1013.6
20260507231845 13 48 1.6 0.0 0.00 0.00 0.20 95 1013.6
20260507231337 13 56 1.6 0.0 0.00 0.00 0.20 95 1013.6
20260507230827 13 63 3.2 0.0 0.00 0.00 0.20 95 1013.6
20260507230333 13 32 3.2 0.0 0.00 0.00 0.20 95 1013.6
20260507225837 14 93 1.6 0.0 0.00 0.00 0.18 95 1013.7
20260507225329 13 51 3.2 0.0 0.00 0.00 0.18 95 1013.8
20260507224839 13 42 4.8 0.0 0.00 0.00 0.15 95 1013.9
20260507224329 13 82 4.8 0.0 0.00 0.00 0.15 95 1013.9
20260507223835 13 84 6.4 0.0 0.00 0.00 0.15 94 1013.9
20260507223327 13 75 6.4 0.0 0.00 0.00 0.13 94 1013.9
20260507222837 13 86 6.4 0.0 0.00 0.00 0.08 94 1013.8
20260507222347 13 48 6.4 0.0 0.00 0.00 0.05 95 1013.9
20260507221856 13 73 6.4 0.0 0.00 0.00 0.03 95 1013.8
20260507221403 14 96 4.8 0.0 0.00 0.00 0.00 95 1013.8
20260507220832 14 106 3.2 0.0 0.00 0.00 0.00 95 1013.8
20260507220342 14 39 3.2 0.0 0.00 0.00 0.00 95 1013.7
20260507215826 14 78 3.2 0.0 0.00 0.00 0.00 95 1013.7
20260507215332 14 39 3.2 0.0 0.00 0.00 0.89 95 1013.7
20260507214843 13 44 3.2 0.0 0.00 0.00 0.89 95 1013.6
20260507214334 13 65 3.2 0.0 0.00 0.00 0.89 95 1013.6
20260507213903 14 43 3.2 0.0 0.00 0.00 0.89 95 1013.6
20260507213333 14 37 3.2 0.0 0.00 0.00 0.89 95 1013.7
20260507212839 14 46 3.2 0.0 0.00 0.00 0.89 95 1013.7
20260507212330 14 58 3.2 0.0 0.00 0.00 0.89 95 1013.8
20260507211840 14 60 3.2 0.0 0.00 0.00 0.89 95 1013.8
20260507211351 14 48 1.6 0.0 0.00 0.00 0.89 95 1013.8
20260507210840 14 50 1.6 0.0 0.00 0.00 0.89 95 1013.8
20260507210339 14 93 1.6 0.0 0.00 0.00 0.89 95 1013.7
20260507205844 14 89 1.6 0.0 0.00 0.00 0.89 95 1013.7
20260507205333 14 73 3.2 0.0 0.00 0.00 0.89 95 1013.6
20260507204844 14 54 3.2 0.0 0.00 0.00 0.89 95 1013.7
20260507204334 14 49 3.2 0.0 0.00 0.00 0.89 95 1013.6
20260507203900 14 56 3.2 0.0 0.00 0.00 0.89 95 1013.5
20260507203331 14 56 3.2 0.0 0.00 0.00 0.89 95 1013.5
20260507202852 14 76 1.6 0.0 0.00 0.00 0.89 95 1013.4
20260507202352 14 96 1.6 0.0 0.00 0.00 0.89 95 1013.4
20260507201853 14 66 1.6 0.0 0.00 0.00 0.89 95 1013.4
20260507201346 14 82 1.6 0.0 0.00 0.00 0.89 95 1013.4
20260507200842 14 43 1.6 0.0 0.00 0.00 0.89 95 1013.4
20260507200354 14 31 1.6 0.0 0.00 0.00 0.89 95 1013.3
20260507195838 14 32 3.2 0.0 0.00 0.00 0.89 95 1013.2
20260507195328 14 72 1.6 0.0 0.00 0.00 0.89 95 1013.2
20260507194835 14 71 3.2 0.0 0.00 0.00 0.89 95 1013.2
20260507194328 15 68 3.2 0.0 0.00 0.00 0.89 95 1013.2
20260507193837 15 42 3.2 0.0 0.00 0.00 0.86 95 1013.1
20260507193327 15 70 3.2 0.0 0.00 0.00 0.86 95 1013.0
20260507192837 15 46 1.6 0.0 0.00 0.00 0.86 95 1013.0
20260507192344 15 83 1.6 0.0 0.00 0.00 0.86 95 1012.9
20260507191834 15 65 1.6 0.0 0.00 0.00 0.86 95 1012.9
20260507191344 15 44 1.6 0.0 0.00 0.00 0.86 95 1012.9
20260507190834 15 50 1.6 0.0 0.00 0.00 0.84 94 1012.9
20260507190327 15 86 1.6 0.0 0.00 0.00 0.84 95 1012.9
20260507185845 15 111 3.2 0.0 0.00 0.00 0.84 95 1012.8
20260507185355 14 96 3.2 0.0 0.00 0.00 0.84 94 1012.8
20260507184845 14 91 3.2 0.0 0.00 0.00 0.84 94 1012.7
20260507184336 14 60 3.2 0.0 0.00 0.00 0.84 94 1012.6
20260507183839 15 99 3.2 0.0 0.00 0.00 0.84 94 1012.6
20260507183328 15 65 1.6 0.0 0.00 0.00 0.84 94 1012.5
20260507182858 15 117 3.2 0.0 0.00 0.00 0.84 94 1012.4
20260507182329 15 64 1.6 0.0 0.00 0.00 0.84 94 1012.3
20260507181828 15 45 1.6 0.0 0.00 0.00 0.84 94 1012.2
20260507181334 15 81 3.2 0.0 0.00 0.00 0.81 94 1012.2
20260507180904 15 54 4.8 0.0 0.00 0.00 0.79 94 1012.1
20260507180334 15 61 4.8 0.0 0.00 0.00 0.79 94 1012.0
20260507175837 15 82 3.2 0.0 0.00 0.00 0.76 94 1012.0
20260507175327 15 75 3.2 0.0 0.00 0.00 0.74 94 1011.9
20260507174853 15 78 3.2 0.0 0.00 0.00 0.74 94 1011.9
20260507174343 15 73 3.2 0.0 0.00 0.00 0.71 94 1011.9